Regional Weather Roundup
Issued by NWS Northern Indiana

Home | Current Version | Previous Version | Graphics & Text | Print | Product List | Glossary On
Versions: 1 2 3 4 5 6 7 8 9 10 11 12 13 14 15 16 17 18 19 20 21 22 23 24 25 26 27 28 29 30 31 32 33 34 35 36 37 38 39 40 41 42 43 44 45 46 47 48 49 50
000
ASUS43 KIWX 180500
RWRIWX

KIWX WEATHER ROUNDUP
NATIONAL WEATHER SERVICE NORTHERN INDIANA
1200 AM EST THU DEC 18 2014

NOTE: "FAIR" INDICATES FEW OR NO CLOUDS BELOW 12,000 FEET WITH NO
SIGNIFICANT WEATHER AND/OR OBSTRUCTIONS TO VISIBILITY.

* THESE STATIONS ARE NOT UNDER NWS QUALITY CONTROL. THEY ALSO MAY NOT
  REPORT WEATHER SUCH AS PRECIPITATION OR FOG.

INZ001>027-180600-
NORTHERN INDIANA

CITY           SKY/WX    TMP DP  RH WIND       PRES   REMARKS
KNOX*          CLOUDY    26  20  76 W7        30.26S WCI  19
SOUTH BEND     NOT AVBL
GOSHEN         CLOUDY    27  21  78 W12       30.24R WCI  17
MONTICELLO*    CLOUDY    26  19  76 W6        30.28R WCI  19
ANGOLA*        CLOUDY    27  19  74 W7        30.21R WCI  19
FORT WAYNE     CLOUDY    27  21  78 W9        30.25R WCI  18
PERU/GRISSOM   CLOUDY    26  22  85 W7        30.26S WCI  18

$$
INZ028>050-180600-
CENTRAL INDIANA

CITY           SKY/WX    TMP DP  RH WIND       PRES   REMARKS
LAFAYETTE      CLOUDY    25  18  74 NW8       30.30R WCI  16
KOKOMO*        CLOUDY    27  18  69 NW8       30.27S WCI  18
MUNCIE*        CLOUDY    26  18  71 NW9       30.26S WCI  17
INDIANAPOLIS   CLOUDY    24  17  74 W3        30.29R

$$
MIZ043>046-050>051-056>058-064>065-071>073-077>080-180600-
SOUTHWEST LOWER MICHIGAN

CITY           SKY/WX    TMP DP  RH WIND       PRES   REMARKS
BATTLE CREEK   CLOUDY    29  20  69 W10       30.21R WCI  20
BENTON HARBOR  CLOUDY    28  21  75 W10       30.25R WCI  19
COLDWATER*     CLOUDY    28  21  75 W8        30.21R WCI  20
HILLSDALE*     CLOUDY    28  22  78 NW10G16   30.19R WCI  18
HOLLAND        CLOUDY    32  22  66 W10       30.23R WCI  24
GRAND RAPIDS   CLOUDY    29  21  72 W13       30.20R WCI  19
KALAMAZOO      CLOUDY    29  20  69 W7        30.22R WCI  22
STURGIS*       CLOUDY    27  21  80 W13       30.22R WCI  16
THREE RIVERS*  CLOUDY    29  21  73 W10       30.23S WCI  19

$$
OHZ001>008-015>018-024>025-180600-
NORTHWEST OHIO

CITY           SKY/WX    TMP DP  RH WIND       PRES   REMARKS
FINDLAY        CLOUDY    28  22  78 W15       30.21S WCI  16
TOLEDO EXPRESS CLOUDY    29  20  69 W9        30.21R WCI  20
TOLEDO METCALF CLOUDY    30  19  63 NW14      30.22R WCI  19
LIMA           CLOUDY    30  21  69 W9        30.22S WCI  22

$$
AND FOR LAKE MICHIGAN COASTAL AND OPEN LAKE BUOY OBSERVATIONS

STATION/POSITION TEMP    WIND        PRES    VSBY  WAVE
                 AIR SEA DIR/SP/G                  HT/PER
                 (F)     (DEG/KT/KT) (MB)    (MI)  (FT/S)
CALUMET HARBOR    25     260/  4/  7 1024.3R
SAINT JOSEPH      30     260/ 11/ 18 1025.1R

$$
&&



USA.gov is the U.S. government's official web portal to all federal, state and local government web resources and services.